Weather History for Lone Rock, WI

Change the Weather History Date:

Tuesday, December 3, 2013

  Actual Average Record
Temperature  
Mean Temperature 36 °F -  
Max Temperature 39 °F 37 °F 68 °F (1998)
Min Temperature 34 °F 23 °F 1 °F (2002)
Degree Days  
Heating Degree Days 28    
Moisture  
Dew Point 36 °F    
Average Humidity 95    
Maximum Humidity 97    
Minimum Humidity 92    
Precipitation  
Precipitation 0.01 in - - ()
Sea Level Pressure  
Sea Level Pressure 29.69 in    
Wind  
Wind Speed 9 mph (East)    
Max Wind Speed 13 mph    
Max Gust Speed -    
Visibility 2 miles    
Events Fog , Rain    
Averages and records for this station are not official NWS values.
T = Trace of Precipitation, MM = Missing Value Source: NWS Daily Summary

Daily Weather History Graph

Daily Weather History Graph

Search for Another Location

Airport:

Trip Planner

Search our weather history database for the weather conditions in past years. The results will help you decide how hot, cold, wet, or windy it might be!

Date:

Astronomy

Dec. 03, 2013 Rise Set
Actual Time 7:15 AM CST 4:25 PM CST
Civil Twilight 6:43 AM CST 4:57 PM CST
Nautical Twilight 6:07 AM CST 5:33 PM CST
Astronomical Twilight 5:33 AM CST 6:07 PM CST
Moon 7:44 AM CST (12/3) 5:30 PM CST (12/3)
Length of Visible Light 10h 14m
Length of Day
9h 10m
New Moon, 1% of the Moon is Illuminated
Dec 3
New Moon
Dec 9
First Quarter
Dec 17
Full
Dec 25
Last Quarter
Jan 1
New

Hourly Weather History & Observations

Time (CST) Temp. Windchill Dew Point Humidity Pressure Visibility Wind Dir Wind Speed Gust Speed Precip Events Conditions
12:08 AM 34.0 °F 26.0 °F 33.1 °F 96% 29.70 in 2.5 mi East 10.4 mph - 0.00 in   Overcast
12:27 AM 34.0 °F 26.0 °F 33.1 °F 96% 29.70 in 2.5 mi East 10.4 mph - 0.00 in   Overcast
12:56 AM 34.0 °F 26.0 °F 33.1 °F 96% 29.69 in 2.5 mi East 10.4 mph - 0.00 in   Overcast
1:22 AM 35.1 °F 27.9 °F 33.1 °F 92% 29.69 in 3.0 mi East 9.2 mph - N/A   Overcast
1:56 AM 35.1 °F 27.4 °F 33.1 °F 92% 29.70 in 3.0 mi East 10.4 mph - N/A   Overcast
2:45 AM 35.1 °F 27.9 °F 33.1 °F 92% 29.68 in 2.5 mi ESE 9.2 mph - N/A   Overcast
2:56 AM 35.1 °F 28.6 °F 34.0 °F 96% 29.68 in 2.5 mi East 8.1 mph - N/A   Overcast
3:37 AM 35.1 °F 27.9 °F 34.0 °F 96% 29.68 in 1.8 mi East 9.2 mph - N/A   Overcast
3:56 AM 35.1 °F 27.4 °F 34.0 °F 96% 29.68 in 1.5 mi ESE 10.4 mph - N/A   Overcast
4:31 AM 35.1 °F 28.6 °F 34.0 °F 96% 29.68 in 0.8 mi East 8.1 mph - N/A   Overcast
4:56 AM 35.1 °F 27.9 °F 34.0 °F 96% 29.68 in 0.5 mi East 9.2 mph - N/A Fog Fog
5:56 AM 35.1 °F 27.9 °F 34.0 °F 96% 29.68 in 0.5 mi East 9.2 mph - 0.00 in Fog Fog
6:56 AM 36.0 °F 28.5 °F 35.1 °F 97% 29.68 in 0.5 mi East 10.4 mph - N/A Fog Fog
7:56 AM 36.0 °F 28.0 °F 35.1 °F 97% 29.67 in 0.2 mi East 11.5 mph - N/A Fog Fog
8:13 AM 36.0 °F 29.0 °F 35.1 °F 97% 29.67 in 0.5 mi East 9.2 mph - 0.00 in Fog Fog
8:56 AM 37.0 °F 29.8 °F 36.0 °F 96% 29.69 in 1.0 mi East 10.4 mph - 0.00 in   Overcast
9:35 AM 37.0 °F 31.6 °F 36.0 °F 96% 29.70 in 0.8 mi East 6.9 mph - N/A   Overcast
9:56 AM 37.0 °F 31.0 °F 36.0 °F 96% 29.71 in 0.2 mi East 8.1 mph - N/A Fog Fog
10:36 AM 37.0 °F 28.9 °F 36.0 °F 96% 29.69 in 0.5 mi East 12.7 mph - 0.00 in Fog , Rain Light Rain
10:56 AM 37.0 °F 29.3 °F 36.0 °F 96% 29.70 in 0.8 mi East 11.5 mph - 0.01 in   Overcast
11:09 AM 37.9 °F 32.1 °F 36.0 °F 93% 29.70 in 1.2 mi ENE 8.1 mph - 0.00 in   Overcast
11:49 AM 37.9 °F 33.5 °F 37.0 °F 97% 29.69 in 1.5 mi ENE 5.8 mph - 0.00 in   Overcast
11:56 AM 37.9 °F 32.7 °F 37.0 °F 97% 29.70 in 1.5 mi East 6.9 mph - 0.00 in   Overcast
12:30 PM 37.9 °F 32.1 °F 37.0 °F 97% 29.68 in 1.2 mi ENE 8.1 mph - N/A   Overcast
12:56 PM 37.9 °F 31.5 °F 37.0 °F 97% 29.69 in 1.2 mi East 9.2 mph - N/A   Overcast
1:56 PM 37.9 °F 30.9 °F 37.0 °F 97% 29.68 in 1.5 mi East 10.4 mph - N/A   Overcast
2:23 PM 37.9 °F 30.5 °F 37.0 °F 97% 29.65 in 1.5 mi East 11.5 mph - N/A   Overcast
2:56 PM 39.0 °F 33.4 °F 37.0 °F 93% 29.66 in 1.5 mi East 8.1 mph - N/A   Overcast
3:56 PM 39.0 °F 32.8 °F 37.0 °F 93% 29.67 in 1.8 mi ENE 9.2 mph - 0.00 in Rain Light Rain
4:09 PM 39.0 °F 34.0 °F 37.0 °F 93% 29.67 in 1.8 mi NE 6.9 mph - 0.00 in   Overcast
4:28 PM 39.0 °F 32.3 °F 37.0 °F 93% 29.66 in 2.5 mi East 10.4 mph - 0.00 in   Overcast
4:56 PM 39.0 °F 33.4 °F 37.9 °F 96% 29.68 in 2.0 mi ENE 8.1 mph - 0.00 in   Overcast
5:24 PM 39.0 °F 32.3 °F 37.9 °F 96% 29.68 in 1.8 mi ENE 10.4 mph - N/A   Overcast
5:56 PM 39.0 °F 32.8 °F 37.9 °F 96% 29.70 in 1.8 mi East 9.2 mph - N/A   Overcast
6:26 PM 39.0 °F 32.3 °F 37.0 °F 93% 29.70 in 2.0 mi ENE 10.4 mph - N/A   Overcast
6:56 PM 39.0 °F 32.8 °F 37.0 °F 93% 29.71 in 2.0 mi ENE 9.2 mph - N/A   Overcast
7:38 PM 37.9 °F 31.5 °F 37.0 °F 97% 29.72 in 1.8 mi East 9.2 mph - N/A   Overcast
7:56 PM 37.9 °F 32.7 °F 37.0 °F 97% 29.74 in 1.8 mi NE 6.9 mph - N/A   Overcast
8:56 PM 37.0 °F 30.4 °F 36.0 °F 96% 29.74 in 1.8 mi ENE 9.2 mph - N/A   Overcast
9:52 PM 37.4 °F 32.8 °F 35.6 °F 93% 29.73 in 2.0 mi ENE 5.8 mph - N/A   Overcast
9:56 PM 37.0 °F 31.0 °F 36.0 °F 96% 29.73 in 2.0 mi ENE 8.1 mph - N/A   Overcast
10:56 PM 37.0 °F 31.6 °F 35.1 °F 93% 29.73 in 3.0 mi ENE 6.9 mph - N/A   Overcast
11:56 PM 37.0 °F 31.6 °F 35.1 °F 93% 29.73 in 4.0 mi East 6.9 mph - N/A   Overcast